����,���ϕ���(m/s),���ϕ���,�ő�u�ԕ���(m/s),�ő啗��������,�C��(��),���x(%),10���Ԉړ��ώZ�J��(mm),1���Ԉړ��ώZ�J��(mm),���J��(mm),�݌v�J��(mm),����(���ώZ)(MJ/m2),����(���ώZ)(min),���n�C��(hPa),�C�ʋC��(hPa)
2019-11-11T00:00:00+09:00,0.7,��,1.5,��,8.8,88.2,0,0,0,0,12.26,386,999,1013.1
2019-11-11T00:01:00+09:00,0.7,��,1.5,��,8.7,88.1,0,0,0,0,0,0,999,1013.1
2019-11-11T00:02:00+09:00,0.7,��,1.5,��,8.5,87.2,0,0,0,0,0,0,999,1013.1
2019-11-11T00:03:00+09:00,0.7,��,1.5,��,8.5,87.9,0,0,0,0,0,0,999,1013.1
2019-11-11T00:04:00+09:00,0.7,��,1.5,��,8.6,88.7,0,0,0,0,0,0,999,1013.1
2019-11-11T00:05:00+09:00,0.6,��,1.5,��,9.1,90.4,0,0,0,0,0,0,999,1013.1
2019-11-11T00:06:00+09:00,0.6,��,1.5,��,9.1,89.5,0,0,0,0,0,0,999,1013.1
2019-11-11T00:07:00+09:00,0.5,���쐼,1.5,��,9,88.3,0,0,0,0,0,0,999,1013.1
2019-11-11T00:08:00+09:00,0.4,���쐼,1.5,��,8.8,87.4,0,0,0,0,0,0,999,1013.1
2019-11-11T00:09:00+09:00,0.3,���쐼,1.1,��,8.7,87.3,0,0,0,0,0,0,999,1013.1
2019-11-11T00:10:00+09:00,0.2,�É�,1.1,��,8.8,88.1,0,0,0,0,0,0,999,1013.1
2019-11-11T00:11:00+09:00,0.2,�É�,1.1,��,9,88.6,0,0,0,0,0,0,999,1013.1
2019-11-11T00:12:00+09:00,0.1,�É�,0.8,���쐼,8.9,88.4,0,0,0,0,0,0,999,1013.1
2019-11-11T00:13:00+09:00,0.1,�É�,0.8,���쐼,8.9,88.2,0,0,0,0,0,0,999,1013.1
2019-11-11T00:14:00+09:00,0.1,�É�,0.7,���쐼,9,88.4,0,0,0,0,0,0,998.9,1013
2019-11-11T00:15:00+09:00,0.1,�É�,0.5,���쐼,9.1,88.5,0,0,0,0,0,0,999,1013.1
2019-11-11T00:16:00+09:00,0.1,�É�,0.4,�k�k��,8.8,87.5,0,0,0,0,0,0,999,1013.1
2019-11-11T00:17:00+09:00,0.1,�É�,0.4,�k�k��,8.9,87.6,0,0,0,0,0,0,999,1013.1
2019-11-11T00:18:00+09:00,0.1,�É�,0.9,��,8.8,88.2,0,0,0,0,0,0,998.9,1013
2019-11-11T00:19:00+09:00,0.2,�É�,1.1,��,8.7,87.5,0,0,0,0,0,0,999,1013.1
2019-11-11T00:20:00+09:00,0.2,�É�,1.1,��,8.7,87.8,0,0,0,0,0,0,999,1013.1
2019-11-11T00:21:00+09:00,0.3,�k��,1.1,��,8.9,88.6,0,0,0,0,0,0,999,1013.1
2019-11-11T00:22:00+09:00,0.4,�k��,1.2,���k��,8.8,88.4,0,0,0,0,0,0,999,1013.1
2019-11-11T00:23:00+09:00,0.5,�k��,1.2,���k��,8.9,88.4,0,0,0,0,0,0,999,1013.1
2019-11-11T00:24:00+09:00,0.6,���k��,1.2,���k��,8.9,88,0,0,0,0,0,0,999,1013.1
2019-11-11T00:25:00+09:00,0.7,���k��,1.2,���k��,9,88.1,0,0,0,0,0,0,999,1013.1
2019-11-11T00:26:00+09:00,0.7,���k��,1.2,���k��,9.1,88.1,0,0,0,0,0,0,999,1013.1
2019-11-11T00:27:00+09:00,0.8,���k��,1.2,���k��,9.1,87.4,0,0,0,0,0,0,998.9,1013
2019-11-11T00:28:00+09:00,0.8,���k��,1.2,���k��,8.8,86.6,0,0,0,0,0,0,999,1013.1
2019-11-11T00:29:00+09:00,0.8,���k��,1.2,���k��,8.9,86.5,0,0,0,0,0,0,999,1013.1
2019-11-11T00:30:00+09:00,0.8,���k��,1.2,���k��,9,87.2,0,0,0,0,0,0,998.9,1013
2019-11-11T00:31:00+09:00,0.8,���k��,1.2,���k��,8.7,86.7,0,0,0,0,0,0,998.9,1013
2019-11-11T00:32:00+09:00,0.7,���k��,1.2,���k��,8.7,86.8,0,0,0,0,0,0,998.9,1013
2019-11-11T00:33:00+09:00,0.7,���k��,1.1,���k��,8.5,86.7,0,0,0,0,0,0,998.9,1013
2019-11-11T00:34:00+09:00,0.6,���k��,1.1,���k��,8.6,87.2,0,0,0,0,0,0,998.8,1012.9
2019-11-11T00:35:00+09:00,0.5,���k��,0.8,��,8.7,88.1,0,0,0,0,0,0,998.9,1013
2019-11-11T00:36:00+09:00,0.5,���k��,0.8,��,8.6,87.9,0,0,0,0,0,0,998.8,1012.9
2019-11-11T00:37:00+09:00,0.5,���k��,0.8,��,8.6,88,0,0,0,0,0,0,998.8,1012.9
2019-11-11T00:38:00+09:00,0.5,��,0.8,��,8.5,87.9,0,0,0,0,0,0,998.8,1012.9
2019-11-11T00:39:00+09:00,0.5,��,0.8,��,8.5,88.2,0,0,0,0,0,0,998.8,1012.9
2019-11-11T00:40:00+09:00,0.5,���k��,0.8,��,8.6,88.3,0,0,0,0,0,0,998.8,1012.9
2019-11-11T00:41:00+09:00,0.5,���k��,1.2,��,8.6,88.4,0,0,0,0,0,0,998.9,1013
2019-11-11T00:42:00+09:00,0.4,���k��,1.2,��,8.3,87.6,0,0,0,0,0,0,999,1013.1
2019-11-11T00:43:00+09:00,0.4,���k��,1.2,��,8.3,88.1,0,0,0,0,0,0,999,1013.1
2019-11-11T00:44:00+09:00,0.5,��,1.2,��,8.4,88.9,0,0,0,0,0,0,999.1,1013.2
2019-11-11T00:45:00+09:00,0.6,��,1.2,��,8.4,89.2,0,0,0,0,0,0,999,1013.1
2019-11-11T00:46:00+09:00,0.6,��,1.2,��,8.4,89.2,0,0,0,0,0,0,999,1013.1
2019-11-11T00:47:00+09:00,0.6,��,1.2,��,8.5,89.5,0,0,0,0,0,0,999,1013.1
2019-11-11T00:48:00+09:00,0.7,��,1.2,��,8.6,89.3,0,0,0,0,0,0,999,1013.1
2019-11-11T00:49:00+09:00,0.7,��,1.2,��,8.6,89.4,0,0,0,0,0,0,998.9,1013
2019-11-11T00:50:00+09:00,0.8,��,1.2,��,8.7,89.1,0,0,0,0,0,0,998.9,1013
2019-11-11T00:51:00+09:00,0.8,��,1.2,��,8.7,88.9,0,0,0,0,0,0,998.9,1013
2019-11-11T00:52:00+09:00,0.8,��,1.2,��,8.7,88.6,0,0,0,0,0,0,998.9,1013
2019-11-11T00:53:00+09:00,0.8,��,1.2,��,8.7,88.5,0,0,0,0,0,0,998.9,1013
2019-11-11T00:54:00+09:00,0.8,��,1.2,��,8.6,88.3,0,0,0,0,0,0,998.9,1013
2019-11-11T00:55:00+09:00,0.8,���k��,1.1,���k��,8.5,88,0,0,0,0,0,0,998.8,1012.9
2019-11-11T00:56:00+09:00,0.7,��,1.1,���k��,8.4,87.9,0,0,0,0,0,0,998.8,1012.9
2019-11-11T00:57:00+09:00,0.7,��,1.1,���k��,8.5,88.4,0,0,0,0,0,0,998.9,1013
2019-11-11T00:58:00+09:00,0.6,��,1,���k��,8.5,88.7,0,0,0,0,0,0,998.9,1013
2019-11-11T00:59:00+09:00,0.6,��,1,���k��,8.6,89,0,0,0,0,0,0,998.9,1013
2019-11-11T01:00:00+09:00,0.6,��,1,���k��,8.5,88.7,0,0,0,0,0,0,998.9,1013
2019-11-11T01:01:00+09:00,0.5,��,0.8,���k��,8.6,89,0,0,0,0,0,0,998.9,1013
2019-11-11T01:02:00+09:00,0.5,��,1,��,8.7,88.7,0,0,0,0,0,0,998.9,1013
2019-11-11T01:03:00+09:00,0.6,��,1.1,��,8.5,88.3,0,0,0,0,0,0,999,1013.1
2019-11-11T01:04:00+09:00,0.6,��,1.7,��,8.5,88.3,0,0,0,0,0,0,999,1013.1
2019-11-11T01:05:00+09:00,0.8,��,2.3,��,8.5,88.4,0,0,0,0,0,0,999,1013.1
2019-11-11T01:06:00+09:00,0.9,��,2.3,��,8.1,87.7,0,0,0,0,0,0,999,1013.1
2019-11-11T01:07:00+09:00,1.1,��,2.3,��,8,87.7,0,0,0,0,0,0,999,1013.2
2019-11-11T01:08:00+09:00,1.1,��,2.3,��,8.1,88.9,0,0,0,0,0,0,999,1013.1
2019-11-11T01:09:00+09:00,1.1,��,2.3,��,8,89.5,0,0,0,0,0,0,999,1013.2
2019-11-11T01:10:00+09:00,1.2,��,2.3,��,8,89.8,0,0,0,0,0,0,999,1013.2
2019-11-11T01:11:00+09:00,1.2,��,2.3,��,8.2,91,0,0,0,0,0,0,999,1013.1
2019-11-11T01:12:00+09:00,1.1,���쐼,2.3,��,8.3,91.5,0,0,0,0,0,0,998.9,1013
2019-11-11T01:13:00+09:00,1.1,���쐼,2.3,��,8.3,91.3,0,0,0,0,0,0,998.9,1013
2019-11-11T01:14:00+09:00,1,���쐼,2.3,��,8.5,91.3,0,0,0,0,0,0,999,1013.1
2019-11-11T01:15:00+09:00,0.8,���쐼,2.3,��,8.5,91.2,0,0,0,0,0,0,999,1013.1
2019-11-11T01:16:00+09:00,0.7,���쐼,2.2,��,8.4,90.5,0,0,0,0,0,0,999,1013.1
2019-11-11T01:17:00+09:00,0.6,���쐼,1.6,��,8.5,90.2,0,0,0,0,0,0,999,1013.1
2019-11-11T01:18:00+09:00,0.5,���쐼,1.2,��,8.5,90.1,0,0,0,0,0,0,999,1013.1
2019-11-11T01:19:00+09:00,0.5,�쐼,1.2,��,8.8,90.7,0,0,0,0,0,0,999,1013.1
2019-11-11T01:20:00+09:00,0.4,�쐼,1.2,��,8.7,89.8,0,0,0,0,0,0,999,1013.1
2019-11-11T01:21:00+09:00,0.4,���쐼,1.2,��,8.6,89.1,0,0,0,0,0,0,999,1013.1
2019-11-11T01:22:00+09:00,0.3,���쐼,1.2,��,8.6,88.8,0,0,0,0,0,0,999,1013.1
2019-11-11T01:23:00+09:00,0.3,��,1.2,��,8.7,88.9,0,0,0,0,0,0,999,1013.1
2019-11-11T01:24:00+09:00,0.3,��,1.2,��,8.5,88.6,0,0,0,0,0,0,999,1013.1
2019-11-11T01:25:00+09:00,0.2,�É�,1.2,��,8.6,88.5,0,0,0,0,0,0,999,1013.1
2019-11-11T01:26:00+09:00,0.2,�É�,1,���쐼,8.7,88.9,0,0,0,0,0,0,999,1013.1
2019-11-11T01:27:00+09:00,0.1,�É�,0.8,��쐼,8.9,89,0,0,0,0,0,0,999,1013.1
2019-11-11T01:28:00+09:00,0.1,�É�,0.8,��쐼,8.7,88.2,0,0,0,0,0,0,999,1013.1
2019-11-11T01:29:00+09:00,0.1,�É�,0.7,�쐼,8.7,88,0,0,0,0,0,0,999,1013.1
2019-11-11T01:30:00+09:00,0.1,�É�,0.7,�쐼,8.7,88.2,0,0,0,0,0,0,999,1013.1
2019-11-11T01:31:00+09:00,0.1,�É�,0.7,�쐼,8.5,87.8,0,0,0,0,0,0,998.9,1013
2019-11-11T01:32:00+09:00,0.1,�É�,0.7,�쐼,8.5,88,0,0,0,0,0,0,998.9,1013
2019-11-11T01:33:00+09:00,0.2,�É�,0.7,�쐼,8.6,88.5,0,0,0,0,0,0,998.9,1013
2019-11-11T01:34:00+09:00,0.2,�É�,0.7,�쐼,8.6,88.7,0,0,0,0,0,0,998.9,1013
2019-11-11T01:35:00+09:00,0.2,�É�,0.7,�쐼,8.8,89.4,0,0,0,0,0,0,998.9,1013
2019-11-11T01:36:00+09:00,0.3,��쐼,0.7,�쐼,8.9,89.3,0,0,0,0,0,0,998.9,1013
2019-11-11T01:37:00+09:00,0.3,��쐼,0.7,�쐼,8.7,88.6,0,0,0,0,0,0,998.9,1013
2019-11-11T01:38:00+09:00,0.3,��쐼,0.7,�쐼,8.4,87.7,0,0,0,0,0,0,998.8,1012.9
2019-11-11T01:39:00+09:00,0.2,�É�,0.7,��쐼,8.2,87.1,0,0,0,0,0,0,998.8,1012.9
2019-11-11T01:40:00+09:00,0.2,�É�,0.8,��쐼,8.3,88.1,0,0,0,0,0,0,998.8,1012.9
2019-11-11T01:41:00+09:00,0.3,��쐼,0.9,���쐼,8.5,89.3,0,0,0,0,0,0,998.8,1012.9
2019-11-11T01:42:00+09:00,0.4,��쐼,1,�쐼,8.4,90.3,0,0,0,0,0,0,998.8,1012.9
2019-11-11T01:43:00+09:00,0.4,��쐼,1,�쐼,8.6,89.6,0,0,0,0,0,0,998.9,1013
2019-11-11T01:44:00+09:00,0.4,��쐼,1.3,��쐼,8.5,89.5,0,0,0,0,0,0,998.9,1013
2019-11-11T01:45:00+09:00,0.5,��쐼,1.4,��쐼,8.3,89,0,0,0,0,0,0,998.9,1013
2019-11-11T01:46:00+09:00,0.6,��쐼,1.4,��쐼,8.2,88.7,0,0,0,0,0,0,998.9,1013
2019-11-11T01:47:00+09:00,0.7,��쐼,1.4,��쐼,8.2,89.4,0,0,0,0,0,0,998.9,1013
2019-11-11T01:48:00+09:00,0.7,�쐼,1.4,��쐼,8.6,90.8,0,0,0,0,0,0,998.9,1013
2019-11-11T01:49:00+09:00,0.7,�쐼,1.4,��쐼,8.6,91,0,0,0,0,0,0,998.8,1012.9
2019-11-11T01:50:00+09:00,0.8,�쐼,1.4,��쐼,8.4,90.1,0,0,0,0,0,0,998.8,1012.9
2019-11-11T01:51:00+09:00,0.8,��쐼,1.4,��쐼,8.3,89.4,0,0,0,0,0,0,998.8,1012.9
2019-11-11T01:52:00+09:00,0.8,��쐼,1.4,��쐼,8.2,89.3,0,0,0,0,0,0,998.8,1012.9
2019-11-11T01:53:00+09:00,0.8,��쐼,1.4,��쐼,8.2,89.8,0,0,0,0,0,0,998.7,1012.8
2019-11-11T01:54:00+09:00,0.8,��쐼,1.4,��쐼,8.1,89.9,0,0,0,0,0,0,998.7,1012.8
2019-11-11T01:55:00+09:00,0.7,��쐼,1.3,��쐼,8,90.1,0,0,0,0,0,0,998.6,1012.7
2019-11-11T01:56:00+09:00,0.7,��쐼,1.3,��쐼,8,90.4,0,0,0,0,0,0,998.6,1012.7
2019-11-11T01:57:00+09:00,0.7,��쐼,1.3,��쐼,8.3,91.1,0,0,0,0,0,0,998.6,1012.7
2019-11-11T01:58:00+09:00,0.7,��쐼,1.3,��쐼,8.1,91.2,0,0,0,0,0,0,998.6,1012.7
2019-11-11T01:59:00+09:00,0.7,��쐼,1.5,��쐼,8,90.4,0,0,0,0,0,0,998.6,1012.7
2019-11-11T02:00:00+09:00,0.8,��쐼,1.5,��쐼,8,90.6,0,0,0,0,0,0,998.6,1012.7
2019-11-11T02:01:00+09:00,0.8,��쐼,1.5,��쐼,8.2,91.6,0,0,0,0,0,0,998.6,1012.7
2019-11-11T02:02:00+09:00,0.9,��쐼,1.6,��쐼,8.4,91.8,0,0,0,0,0,0,998.6,1012.7
2019-11-11T02:03:00+09:00,0.9,��쐼,1.6,��쐼,8.5,92.3,0,0,0,0,0,0,998.5,1012.6
2019-11-11T02:04:00+09:00,0.9,��쐼,1.6,��쐼,8.3,91.6,0,0,0,0,0,0,998.5,1012.6
2019-11-11T02:05:00+09:00,1,��쐼,1.6,��쐼,8.2,90,0,0,0,0,0,0,998.6,1012.7
2019-11-11T02:06:00+09:00,1,��쐼,1.6,��쐼,8.3,91,0,0,0,0,0,0,998.5,1012.6
2019-11-11T02:07:00+09:00,1,�쐼,1.6,��쐼,8.3,90.3,0,0,0,0,0,0,998.5,1012.6
2019-11-11T02:08:00+09:00,1,��쐼,1.6,��쐼,8.3,91.4,0,0,0,0,0,0,998.5,1012.6
2019-11-11T02:09:00+09:00,1,��쐼,1.6,��쐼,8.3,90.6,0,0,0,0,0,0,998.5,1012.6
2019-11-11T02:10:00+09:00,0.9,��쐼,1.6,��쐼,8.1,90.6,0,0,0,0,0,0,998.4,1012.5
2019-11-11T02:11:00+09:00,0.9,��쐼,1.6,��쐼,8.3,91,0,0,0,0,0,0,998.4,1012.5
2019-11-11T02:12:00+09:00,0.8,�쐼,1.6,��쐼,8.2,91.5,0,0,0,0,0,0,998.4,1012.5
2019-11-11T02:13:00+09:00,0.7,�쐼,1.4,�쐼,8.1,90.7,0,0,0,0,0,0,998.4,1012.5
2019-11-11T02:14:00+09:00,0.6,�쐼,1.3,�쐼,8.2,91,0,0,0,0,0,0,998.3,1012.4
2019-11-11T02:15:00+09:00,0.5,�쐼,1.2,��쐼,8.2,91.3,0,0,0,0,0,0,998.3,1012.4
2019-11-11T02:16:00+09:00,0.4,�쐼,1.1,��쐼,8.2,91.5,0,0,0,0,0,0,998.3,1012.4
2019-11-11T02:17:00+09:00,0.4,��쐼,1.1,��쐼,8.4,91.3,0,0,0,0,0,0,998.3,1012.4
2019-11-11T02:18:00+09:00,0.3,�쐼,0.9,��쐼,8.3,91.6,0,0,0,0,0,0,998.3,1012.4
2019-11-11T02:19:00+09:00,0.2,�É�,0.9,��쐼,8.6,91.2,0,0,0,0,0,0,998.3,1012.4
2019-11-11T02:20:00+09:00,0.2,�É�,0.9,��쐼,8.3,90.6,0,0,0,0,0,0,998.3,1012.4
2019-11-11T02:21:00+09:00,0.2,�É�,0.9,��쐼,8.3,89.2,0,0,0,0,0,0,998.3,1012.4
2019-11-11T02:22:00+09:00,0.2,�É�,0.9,��쐼,8.3,89.7,0,0,0,0,0,0,998.2,1012.3
2019-11-11T02:23:00+09:00,0.2,�É�,0.8,��쐼,8.3,89.3,0,0,0,0,0,0,998.2,1012.3
2019-11-11T02:24:00+09:00,0.2,�É�,0.8,��쐼,8.3,89.8,0,0,0,0,0,0,998.2,1012.3
2019-11-11T02:25:00+09:00,0.2,�É�,0.8,��쐼,8,89.1,0,0,0,0,0,0,998.2,1012.3
2019-11-11T02:26:00+09:00,0.2,�É�,0.8,��쐼,7.9,89.3,0,0,0,0,0,0,998.2,1012.3
2019-11-11T02:27:00+09:00,0.2,�É�,0.7,�쐼,8.2,90.5,0,0,0,0,0,0,998.2,1012.3
2019-11-11T02:28:00+09:00,0.2,�É�,0.7,�쐼,8.3,91.4,0,0,0,0,0,0,998.2,1012.3
2019-11-11T02:29:00+09:00,0.2,�É�,0.7,�쐼,8.1,90.8,0,0,0,0,0,0,998.2,1012.3
2019-11-11T02:30:00+09:00,0.2,�É�,0.7,�쐼,8.3,90.5,0,0,0,0,0,0,998.1,1012.2
2019-11-11T02:31:00+09:00,0.2,�É�,0.7,�쐼,8.3,90.7,0,0,0,0,0,0,998.1,1012.2
2019-11-11T02:32:00+09:00,0.2,�É�,0.7,�쐼,8.4,90.8,0,0,0,0,0,0,998.1,1012.2
2019-11-11T02:33:00+09:00,0.2,�É�,0.7,�쐼,8.4,90.6,0,0,0,0,0,0,998.1,1012.2
2019-11-11T02:34:00+09:00,0.2,�É�,0.7,�쐼,8,89.6,0,0,0,0,0,0,998.1,1012.2
2019-11-11T02:35:00+09:00,0.2,�É�,0.7,�쐼,7.9,89,0,0,0,0,0,0,998.1,1012.2
2019-11-11T02:36:00+09:00,0.2,�É�,0.7,�쐼,7.7,89,0,0,0,0,0,0,998.1,1012.3
2019-11-11T02:37:00+09:00,0.3,�쐼,0.9,���쐼,7.8,89.7,0,0,0,0,0,0,998.1,1012.2
2019-11-11T02:38:00+09:00,0.3,�쐼,0.9,���쐼,8.1,90.9,0,0,0,0,0,0,998.1,1012.2
2019-11-11T02:39:00+09:00,0.3,�쐼,0.9,���쐼,8,91,0,0,0,0,0,0,998.1,1012.2
2019-11-11T02:40:00+09:00,0.3,�쐼,0.9,���쐼,7.9,90.8,0,0,0,0,0,0,998.1,1012.2
2019-11-11T02:41:00+09:00,0.3,��쐼,0.9,���쐼,8.1,91.7,0,0,0,0,0,0,998.1,1012.2
2019-11-11T02:42:00+09:00,0.3,��쐼,0.9,���쐼,8.1,92,0,0,0,0,0,0,998,1012.1
2019-11-11T02:43:00+09:00,0.3,��쐼,0.9,���쐼,8,91.1,0,0,0,0,0,0,997.9,1012
2019-11-11T02:44:00+09:00,0.3,��,0.9,���쐼,7.8,90.9,0,0,0,0,0,0,997.9,1012
2019-11-11T02:45:00+09:00,0.3,��,0.9,���쐼,7.8,90.9,0,0,0,0,0,0,997.8,1011.9
2019-11-11T02:46:00+09:00,0.3,��,0.9,���쐼,7.8,91.3,0,0,0,0,0,0,997.8,1011.9
2019-11-11T02:47:00+09:00,0.3,��쓌,0.8,��쐼,7.9,92,0,0,0,0,0,0,997.8,1011.9
2019-11-11T02:48:00+09:00,0.2,�É�,0.8,��쐼,7.9,92.2,0,0,0,0,0,0,997.8,1011.9
2019-11-11T02:49:00+09:00,0.2,�É�,0.8,��쐼,7.9,92.3,0,0,0,0,0,0,997.8,1011.9
2019-11-11T02:50:00+09:00,0.2,�É�,0.8,��쐼,7.9,92.2,0,0,0,0,0,0,997.8,1011.9
2019-11-11T02:51:00+09:00,0.2,�É�,0.8,��쐼,7.8,91.7,0,0,0,0,0,0,997.7,1011.8
2019-11-11T02:52:00+09:00,0.2,�É�,0.8,��,7.5,91.3,0,0,0,0,0,0,997.7,1011.9
2019-11-11T02:53:00+09:00,0.2,�É�,0.8,��,7.4,90.4,0,0,0,0,0,0,997.7,1011.9
2019-11-11T02:54:00+09:00,0.3,���쐼,1.1,��,7.6,91.2,0,0,0,0,0,0,997.7,1011.9
2019-11-11T02:55:00+09:00,0.3,���쐼,1.1,��,7.7,92,0,0,0,0,0,0,997.7,1011.8
2019-11-11T02:56:00+09:00,0.4,���쐼,1.1,��,7.7,92.3,0,0,0,0,0,0,997.6,1011.7
2019-11-11T02:57:00+09:00,0.4,��,1.1,��,7.6,92,0,0,0,0,0,0,997.6,1011.8
2019-11-11T02:58:00+09:00,0.5,��,1.1,��,7.3,90.9,0,0,0,0,0,0,997.6,1011.8
2019-11-11T02:59:00+09:00,0.5,��,1.1,��,7.4,91,0,0,0,0,0,0,997.6,1011.8
2019-11-11T03:00:00+09:00,0.5,��,1.1,��,7.5,91.8,0,0,0,0,0,0,997.5,1011.7
2019-11-11T03:01:00+09:00,0.5,��,1.1,��,7.9,92.8,0,0,0,0,0,0,997.5,1011.6
2019-11-11T03:02:00+09:00,0.5,��,1.1,��,7.9,93.3,0,0,0,0,0,0,997.5,1011.6
2019-11-11T03:03:00+09:00,0.5,��,1.1,��,7.8,92.6,0,0,0,0,0,0,997.4,1011.5
2019-11-11T03:04:00+09:00,0.5,��,1.2,��쐼,7.7,91.9,0,0,0,0,0,0,997.4,1011.5
2019-11-11T03:05:00+09:00,0.4,���쐼,1.2,��쐼,7.5,91.4,0,0,0,0,0,0,997.4,1011.6
2019-11-11T03:06:00+09:00,0.4,���쐼,1.2,��쐼,7.6,91.8,0,0,0,0,0,0,997.4,1011.5
2019-11-11T03:07:00+09:00,0.4,���쐼,1.2,��쐼,7.6,92,0,0,0,0,0,0,997.4,1011.5
2019-11-11T03:08:00+09:00,0.4,�쐼,1.4,��쐼,7.5,91.9,0,0,0,0,0,0,997.2,1011.4
2019-11-11T03:09:00+09:00,0.5,�쐼,1.4,��쐼,7.4,92.1,0,0,0,0,0,0,997.2,1011.4
2019-11-11T03:10:00+09:00,0.5,�쐼,1.4,��쐼,7.5,92.6,0,0,0,0,0,0,997.1,1011.2
2019-11-11T03:11:00+09:00,0.6,�쐼,1.4,��쐼,7.5,92.7,0,0,0,0,0,0,997.1,1011.2
2019-11-11T03:12:00+09:00,0.6,��쐼,1.4,��쐼,7.4,92.4,0,0,0,0,0,0,997.1,1011.3
2019-11-11T03:13:00+09:00,0.7,��쐼,1.4,��쐼,7.7,92.9,0,0,0,0,0,0,997,1011.1
2019-11-11T03:14:00+09:00,0.7,�쐼,1.4,��쐼,7.8,94,0,0,0,0,0,0,997,1011.1
2019-11-11T03:15:00+09:00,0.8,�쐼,1.6,��쐼,7.4,92.3,0,0,0,0,0,0,997,1011.2
2019-11-11T03:16:00+09:00,0.9,�쐼,2,��쐼,7.5,91.6,0,0,0,0,0,0,997,1011.1
2019-11-11T03:17:00+09:00,1,�쐼,2.2,��쐼,7.4,92,0,0,0,0,0,0,997,1011.2
2019-11-11T03:18:00+09:00,1.1,�쐼,2.4,��쐼,7.3,91.8,0,0,0,0,0,0,997,1011.2
2019-11-11T03:19:00+09:00,1.2,�쐼,2.4,��쐼,7.2,91.9,0,0,0,0,0,0,997.1,1011.3
2019-11-11T03:20:00+09:00,1.2,�쐼,2.4,��쐼,7.2,92.3,0,0,0,0,0,0,997.1,1011.3
2019-11-11T03:21:00+09:00,1.2,�쐼,2.4,��쐼,7.2,92.7,0,0,0,0,0,0,997.1,1011.3
2019-11-11T03:22:00+09:00,1.3,�쐼,2.4,��쐼,7.3,93.3,0,0,0,0,0,0,997.1,1011.3
2019-11-11T03:23:00+09:00,1.3,�쐼,2.4,��쐼,7.2,93.7,0,0,0,0,0,0,997.1,1011.3
2019-11-11T03:24:00+09:00,1.4,�쐼,2.4,��쐼,7.3,93.9,0,0,0,0,0,0,997.1,1011.3
2019-11-11T03:25:00+09:00,1.3,�쐼,2.4,��쐼,7.2,93.7,0,0,0,0,0,0,997.1,1011.3
2019-11-11T03:26:00+09:00,1.2,�쐼,2.4,��쐼,7.3,93.9,0,0,0,0,0,0,997.1,1011.3
2019-11-11T03:27:00+09:00,1.1,�쐼,2.4,��쐼,7.2,94.1,0,0,0,0,0,0,997.1,1011.3
2019-11-11T03:28:00+09:00,1,�쐼,2.3,�쐼,7.5,94.7,0,0,0,0,0,0,997.1,1011.2
2019-11-11T03:29:00+09:00,0.9,�쐼,2.3,�쐼,7.4,94.7,0,0,0,0,0,0,997.1,1011.3
2019-11-11T03:30:00+09:00,0.8,�쐼,1.7,���쐼,7.3,94.5,0,0,0,0,0,0,997.1,1011.3
2019-11-11T03:31:00+09:00,0.8,�쐼,1.7,���쐼,7.3,94.2,0,0,0,0,0,0,997.1,1011.3
2019-11-11T03:32:00+09:00,0.8,�쐼,1.7,�쐼,7.2,94,0,0,0,0,0,0,997.2,1011.4
2019-11-11T03:33:00+09:00,0.9,�쐼,1.7,�쐼,7.3,94,0,0,0,0,0,0,997.2,1011.4
2019-11-11T03:34:00+09:00,0.9,�쐼,1.7,�쐼,7.1,94.3,0,0,0,0,0,0,997.2,1011.4
2019-11-11T03:35:00+09:00,0.8,�쐼,1.7,�쐼,7.2,94.3,0,0,0,0,0,0,997.2,1011.4
2019-11-11T03:36:00+09:00,0.9,�쐼,1.7,�쐼,7.2,94.3,0,0,0,0,0,0,997.3,1011.5
2019-11-11T03:37:00+09:00,0.8,�쐼,1.7,�쐼,7.3,94.7,0,0,0,0,0,0,997.2,1011.4
2019-11-11T03:38:00+09:00,0.8,�쐼,1.7,�쐼,7.7,95.2,0,0,0,0,0,0,997.2,1011.3
2019-11-11T03:39:00+09:00,0.9,�쐼,1.7,�쐼,7.3,95.2,0,0,0,0,0,0,997.3,1011.5
2019-11-11T03:40:00+09:00,0.9,�쐼,1.7,�쐼,7.4,94.6,0,0,0,0,0,0,997.3,1011.5
2019-11-11T03:41:00+09:00,0.9,���쐼,1.7,�쐼,7.4,94.7,0,0,0,0,0,0,997.3,1011.5
2019-11-11T03:42:00+09:00,0.9,���쐼,1.6,���쐼,7.4,93.9,0,0,0,0,0,0,997.3,1011.5
2019-11-11T03:43:00+09:00,0.9,���쐼,1.7,��,7.3,93.8,0,0,0,0,0,0,997.3,1011.5
2019-11-11T03:44:00+09:00,0.9,���쐼,1.8,��,7.4,93.6,0,0,0,0,0,0,997.3,1011.5
2019-11-11T03:45:00+09:00,1,���쐼,1.8,��,7.4,93.7,0,0,0,0,0,0,997.3,1011.5
2019-11-11T03:46:00+09:00,1.1,��,1.9,���쐼,7.3,93,0,0,0,0,0,0,997.3,1011.5
2019-11-11T03:47:00+09:00,1.2,��,1.9,���쐼,7.5,93.1,0,0,0,0,0,0,997.3,1011.5
2019-11-11T03:48:00+09:00,1.3,��,1.9,���쐼,7.4,93.3,0,0,0,0,0,0,997.3,1011.5
2019-11-11T03:49:00+09:00,1.2,��,1.9,���쐼,7.2,92.2,0,0,0,0,0,0,997.3,1011.5
2019-11-11T03:50:00+09:00,1.2,��,1.9,���쐼,7.3,92.2,0,0,0,0,0,0,997.2,1011.4
2019-11-11T03:51:00+09:00,1.2,��,1.9,���쐼,7.3,92.7,0,0,0,0,0,0,997.2,1011.4
2019-11-11T03:52:00+09:00,1.1,��,1.9,���쐼,7.4,92.7,0,0,0,0,0,0,997.2,1011.4
2019-11-11T03:53:00+09:00,1.1,��,1.9,���쐼,7.2,92.4,0,0,0,0,0,0,997.2,1011.4
2019-11-11T03:54:00+09:00,1.1,��,1.9,���쐼,7.3,92.4,0,0,0,0,0,0,997.2,1011.4
2019-11-11T03:55:00+09:00,1,��,1.9,���쐼,7.3,92.8,0,0,0,0,0,0,997.2,1011.4
2019-11-11T03:56:00+09:00,0.9,��,1.8,���k��,7.5,93.3,0,0,0,0,0,0,997.2,1011.4
2019-11-11T03:57:00+09:00,0.8,��,1.8,���k��,7.5,93.4,0,0,0,0,0,0,997.1,1011.2
2019-11-11T03:58:00+09:00,0.7,��,1.8,���k��,7.3,92.3,0,0,0,0,0,0,997.1,1011.3
2019-11-11T03:59:00+09:00,0.7,��,1.8,���k��,7.2,91.8,0,0,0,0,0,0,997.1,1011.3
2019-11-11T04:00:00+09:00,0.6,��,1.7,���k��,7.3,92.2,0,0,0,0,0,0,997.1,1011.3
2019-11-11T04:01:00+09:00,0.5,���k��,1.3,��,7.3,92.5,0,0,0,0,0,0,997.1,1011.3
2019-11-11T04:02:00+09:00,0.4,���k��,1.3,��,7,91.6,0,0,0,0,0,0,997.1,1011.3
2019-11-11T04:03:00+09:00,0.3,���k��,1.2,��,7,91.6,0,0,0,0,0,0,997.1,1011.3
2019-11-11T04:04:00+09:00,0.3,�k��,1,���쐼,7,92.2,0,0,0,0,0,0,997.1,1011.3
2019-11-11T04:05:00+09:00,0.2,�É�,0.8,���k��,7,92.7,0,0,0,0,0,0,997,1011.2
2019-11-11T04:06:00+09:00,0.2,�É�,0.8,���k��,7.1,93,0,0,0,0,0,0,997,1011.2
2019-11-11T04:07:00+09:00,0.2,�É�,1,���쐼,7.1,93.2,0,0,0,0,0,0,997,1011.2
2019-11-11T04:08:00+09:00,0.2,�É�,1.3,��,7,92.9,0,0,0,0,0,0,997,1011.2
2019-11-11T04:09:00+09:00,0.3,�k,1.3,��,7.3,93.5,0,0,0,0,0,0,997,1011.2
2019-11-11T04:10:00+09:00,0.5,�k�k��,1.5,��,7.4,93.9,0,0,0,0,0,0,997,1011.2
2019-11-11T04:11:00+09:00,0.6,��,1.5,��,7.4,93.5,0,0,0,0,0,0,997,1011.2
2019-11-11T04:12:00+09:00,0.7,��,1.5,��,7.5,93.2,0,0,0,0,0,0,997,1011.1
2019-11-11T04:13:00+09:00,0.8,��,1.7,��,7.3,92.4,0,0,0,0,0,0,997,1011.2
2019-11-11T04:14:00+09:00,0.8,��,1.7,��,7.3,91.5,0,0,0,0,0,0,997,1011.2
2019-11-11T04:15:00+09:00,0.9,��,1.7,��,7.3,92.3,0,0,0,0,0,0,997,1011.2
2019-11-11T04:16:00+09:00,0.9,��,1.7,��,7.1,91.9,0,0,0,0,0,0,997,1011.2
2019-11-11T04:17:00+09:00,0.9,��,1.7,��,7.1,91.9,0,0,0,0,0,0,997,1011.2
2019-11-11T04:18:00+09:00,0.9,��,1.7,��,7.3,92.9,0,0,0,0,0,0,997,1011.2
2019-11-11T04:19:00+09:00,0.8,��,1.7,��,7.3,93.1,0,0,0,0,0,0,997,1011.2
2019-11-11T04:20:00+09:00,0.7,��,1.7,��,7.7,94.1,0,0,0,0,0,0,997,1011.1
2019-11-11T04:21:00+09:00,0.6,���쐼,1.7,��,7.4,93.5,0,0,0,0,0,0,997,1011.2
2019-11-11T04:22:00+09:00,0.5,���쐼,1.7,��,7.4,92.7,0,0,0,0,0,0,997,1011.2
2019-11-11T04:23:00+09:00,0.4,���쐼,1.2,���쐼,7.3,92.6,0,0,0,0,0,0,997,1011.2
2019-11-11T04:24:00+09:00,0.4,���쐼,1.2,���쐼,7.2,92.1,0,0,0,0,0,0,997,1011.2
2019-11-11T04:25:00+09:00,0.4,��쓌,1,���쐼,7.2,92,0,0,0,0,0,0,997,1011.2
2019-11-11T04:26:00+09:00,0.4,��,1,���쐼,7.3,92.4,0,0,0,0,0,0,997,1011.2
2019-11-11T04:27:00+09:00,0.4,���k��,0.8,��,7.3,92.5,0,0,0,0,0,0,997,1011.2
2019-11-11T04:28:00+09:00,0.4,�k��,0.8,��,7.3,92.4,0,0,0,0,0,0,997,1011.2
2019-11-11T04:29:00+09:00,0.4,�k��,0.8,��,7.1,91.9,0,0,0,0,0,0,997,1011.2
2019-11-11T04:30:00+09:00,0.4,�k�k��,0.8,��,7.4,92.1,0,0,0,0,0,0,997,1011.2
2019-11-11T04:31:00+09:00,0.4,�k�k��,0.9,���k��,7.4,92.6,0,0,0,0,0,0,997,1011.2
2019-11-11T04:32:00+09:00,0.4,�k,0.9,���k��,7.4,92.2,0,0,0,0,0,0,997,1011.2
2019-11-11T04:33:00+09:00,0.4,�k�k��,0.9,���k��,7.3,91.8,0,0,0,0,0,0,997,1011.2
2019-11-11T04:34:00+09:00,0.4,�k��,0.9,���k��,7.4,91.8,0,0,0,0,0,0,996.9,1011.1
2019-11-11T04:35:00+09:00,0.4,�k��,0.9,���k��,7.4,92.1,0,0,0,0,0,0,997,1011.2
2019-11-11T04:36:00+09:00,0.4,�k��,0.9,���k��,7.5,92.2,0,0,0,0,0,0,996.9,1011
2019-11-11T04:37:00+09:00,0.4,�k��,0.9,���k��,7.7,92.5,0,0,0,0,0,0,997,1011.1
2019-11-11T04:38:00+09:00,0.4,���k��,1,���k��,7.5,91.9,0,0,0,0,0,0,996.9,1011
2019-11-11T04:39:00+09:00,0.5,���k��,1.2,���k��,7.4,91,0,0,0,0,0,0,996.9,1011.1
2019-11-11T04:40:00+09:00,0.6,���k��,1.3,���k��,7.5,90.8,0,0,0,0,0,0,996.9,1011
2019-11-11T04:41:00+09:00,0.6,���k��,1.3,���k��,7.4,90.6,0,0,0,0,0,0,996.9,1011.1
2019-11-11T04:42:00+09:00,0.6,���k��,1.3,���k��,7.3,90.4,0,0,0,0,0,0,996.9,1011.1
2019-11-11T04:43:00+09:00,0.6,���k��,1.3,���k��,7.4,90.6,0,0,0,0,0,0,996.9,1011.1
2019-11-11T04:44:00+09:00,0.7,���k��,1.3,���k��,7.4,90.7,0,0,0,0,0,0,996.9,1011.1
2019-11-11T04:45:00+09:00,0.7,���k��,1.3,���k��,7.4,90.6,0,0,0,0,0,0,996.9,1011.1
2019-11-11T04:46:00+09:00,0.7,���k��,1.3,���k��,7.5,90.5,0,0,0,0,0,0,996.9,1011
2019-11-11T04:47:00+09:00,0.8,���k��,1.3,���k��,7.5,90.6,0,0,0,0,0,0,996.9,1011
2019-11-11T04:48:00+09:00,0.8,���k��,1.3,���k��,7.6,90.4,0,0,0,0,0,0,996.9,1011
2019-11-11T04:49:00+09:00,0.8,���k��,1.3,���k��,7.7,90.2,0,0,0,0,0,0,996.9,1011
2019-11-11T04:50:00+09:00,0.7,���k��,1.1,��,7.7,89.9,0,0,0,0,0,0,996.9,1011
2019-11-11T04:51:00+09:00,0.7,���k��,1.1,��,7.6,89.5,0,0,0,0,0,0,996.8,1010.9
2019-11-11T04:52:00+09:00,0.7,���k��,1.1,��,7.6,89.3,0,0,0,0,0,0,996.8,1010.9
2019-11-11T04:53:00+09:00,0.7,���k��,1.1,��,7.6,89.6,0,0,0,0,0,0,996.8,1010.9
2019-11-11T04:54:00+09:00,0.7,���k��,1,��,7.7,89.5,0,0,0,0,0,0,996.8,1010.9
2019-11-11T04:55:00+09:00,0.7,���k��,1,���쐼,7.6,89.4,0,0,0,0,0,0,996.8,1010.9
2019-11-11T04:56:00+09:00,0.7,���k��,1,���쐼,7.6,89.3,0,0,0,0,0,0,996.8,1010.9
2019-11-11T04:57:00+09:00,0.6,���k��,1,���쐼,7.6,89.3,0,0,0,0,0,0,996.7,1010.8
2019-11-11T04:58:00+09:00,0.6,���k��,1,���쐼,7.5,89.4,0,0,0,0,0,0,996.7,1010.8
2019-11-11T04:59:00+09:00,0.5,���k��,1,���쐼,7.6,89.6,0,0,0,0,0,0,996.7,1010.8
2019-11-11T05:00:00+09:00,0.5,��,1,���쐼,7.6,89.8,0,0,0,0,0,0,996.7,1010.8
2019-11-11T05:01:00+09:00,0.5,��,1,���쐼,7.3,89,0,0,0,0,0,0,996.7,1010.9
2019-11-11T05:02:00+09:00,0.5,���쐼,1.1,��쐼,7.2,89.1,0,0,0,0,0,0,996.7,1010.9
2019-11-11T05:03:00+09:00,0.4,���쐼,1.1,��쐼,7.2,89.8,0,0,0,0,0,0,996.6,1010.8
2019-11-11T05:04:00+09:00,0.4,�쐼,1.1,��쐼,7.3,90.8,0,0,0,0,0,0,996.7,1010.9
2019-11-11T05:05:00+09:00,0.4,�쐼,1.1,��쐼,7.5,91.6,0,0,0,0,0,0,996.6,1010.7
2019-11-11T05:06:00+09:00,0.4,�쐼,1.1,��쐼,7.4,91.4,0,0,0,0,0,0,996.6,1010.7
2019-11-11T05:07:00+09:00,0.4,�쐼,1.1,��쐼,7.5,91,0,0,0,0,0,0,996.6,1010.7
2019-11-11T05:08:00+09:00,0.5,�쐼,1.1,��쐼,7.3,91,0,0,0,0,0,0,996.6,1010.8
2019-11-11T05:09:00+09:00,0.5,�쐼,1.1,��쐼,7.4,90.7,0,0,0,0,0,0,996.5,1010.6
2019-11-11T05:10:00+09:00,0.5,�쐼,1.1,��쐼,7.6,91.4,0,0,0,0,0,0,996.5,1010.6
2019-11-11T05:11:00+09:00,0.5,�쐼,1.1,��쐼,7.6,91.5,0,0,0,0,0,0,996.5,1010.6
2019-11-11T05:12:00+09:00,0.4,���쐼,1.1,��쐼,7.6,91.3,0,0,0,0,0,0,996.5,1010.6
2019-11-11T05:13:00+09:00,0.5,���쐼,1.1,��쐼,7.7,91.4,0,0,0,0,0,0,996.5,1010.6
2019-11-11T05:14:00+09:00,0.5,���쐼,1.1,��쐼,7.6,90.9,0,0,0,0,0,0,996.5,1010.6
2019-11-11T05:15:00+09:00,0.5,���쐼,1.1,��쐼,7.5,90.4,0,0,0,0,0,0,996.5,1010.6
2019-11-11T05:16:00+09:00,0.5,���쐼,1.1,��쐼,7.5,90.3,0,0,0,0,0,0,996.4,1010.5